FW6707 Weather Reports


time (UTC)temp
C
wind
direction
speed
KPH
gust
KPH
rain 1hr
cm
rain 24hr
cm
rain mn
cm
humidity
%
barometer
mb
20260506110021 17 242 16.1 33.8 0.00 0.00 0.00 70 1014.4
20260506104514 17 250 17.7 40.2 0.00 0.00 0.00 70 1014.3
20260506103011 17 247 16.1 32.2 0.00 0.00 0.00 72 1014.3
20260506101507 16 246 17.7 35.4 0.00 0.00 0.00 74 1014.4
20260506100007 15 226 16.1 38.6 0.00 0.00 0.00 76 1014.3
20260506094503 15 246 16.1 35.4 0.00 0.00 0.00 77 1014.1
20260506093002 15 267 22.5 40.2 0.00 0.00 0.00 78 1014.0
20260506091559 14 281 19.3 35.4 0.00 0.00 0.00 78 1014.0
20260506090058 13 284 12.9 40.2 0.00 0.00 0.00 80 1013.5
20260506084603 13 261 17.7 32.2 0.00 0.00 0.00 80 1013.3
20260506083056 13 236 19.3 30.6 0.00 0.00 0.00 81 1013.3
20260506081554 13 275 14.5 30.6 0.00 0.00 0.00 81 1013.4
20260506073051 13 280 9.7 29.0 0.00 0.00 0.00 80 1013.5
20260506071556 13 257 12.9 22.5 0.00 0.00 0.00 80 1013.5
20260506061545 13 240 12.9 24.1 0.00 0.00 0.00 78 1013.6
20260506044543 12 268 11.3 20.9 0.00 0.00 0.00 79 1013.8
20260506043034 13 270 14.5 30.6 0.00 0.00 0.00 78 1013.7
20260506041531 13 291 12.9 27.4 0.00 0.00 0.00 77 1013.5
20260506040029 13 251 19.3 38.6 0.00 0.00 0.00 76 1013.3
20260506034526 14 240 24.1 45.1 0.00 0.00 0.00 74 1013.1
20260506033031 15 260 17.7 35.4 0.00 0.00 0.00 72 1013.1
20260506031529 15 240 19.3 46.7 0.00 0.00 0.00 70 1012.9
20260506030038 15 302 17.7 33.8 0.00 0.00 0.00 71 1012.7
20260506024524 15 283 17.7 32.2 0.00 0.00 0.00 72 1012.6
20260506023014 14 272 17.7 38.6 0.00 0.00 0.00 72 1013.0
20260506021513 14 246 12.9 40.2 0.00 0.00 0.00 73 1012.9
20260506020012 14 242 14.5 27.4 0.00 0.00 0.00 72 1012.9
20260506014511 14 243 12.9 29.0 0.00 0.00 0.00 71 1012.9
20260506013011 15 298 17.7 40.2 0.00 0.00 0.00 70 1012.9
20260506011511 15 240 8.0 30.6 0.00 0.00 0.00 69 1012.7
20260506010009 15 257 12.9 24.1 0.00 0.00 0.00 67 1012.6
20260506004519 15 262 20.9 37.0 0.00 0.00 0.00 65 1012.5
20260506003006 15 242 16.1 30.6 0.00 0.00 0.00 64 1012.3
20260506001506 16 309 17.7 40.2 0.00 0.00 0.00 61 1012.2
20260506000006 16 297 16.1 40.2 0.00 0.00 0.00 59 1011.8
20260505234602 16 246 16.1 37.0 0.00 0.00 0.00 57 1011.3
20260505233127 17 250 16.1 32.2 0.00 0.00 0.00 55 1011.2
20260505231558 17 259 17.7 30.6 0.00 0.00 0.00 53 1010.9
20260505230057 18 251 14.5 35.4 0.00 0.00 0.00 51 1010.6
20260505224558 18 259 9.7 30.6 0.00 0.00 0.00 50 1010.6
20260505223055 19 200 8.0 29.0 0.00 0.00 0.00 49 1010.9
20260505221601 20 235 12.9 27.4 0.00 0.00 0.00 48 1010.8
20260505220054 20 282 9.7 22.5 0.00 0.00 0.00 48 1010.6
20260505214553 21 186 6.4 25.7 0.00 0.00 0.00 46 1010.4
20260505213054 21 244 6.4 27.4 0.00 0.00 0.00 45 1010.3
20260505211651 21 235 12.9 24.1 0.00 0.00 0.00 44 1010.3
20260505210049 22 219 4.8 24.1 0.00 0.00 0.00 44 1010.4
20260505204548 22 311 8.0 24.1 0.00 0.00 0.00 43 1010.3
20260505203051 23 190 11.3 25.7 0.00 0.00 0.00 42 1010.1
20260505201548 23 174 14.5 32.2 0.00 0.00 0.00 42 1009.8
20260505200043 23 221 8.0 27.4 0.00 0.00 0.00 43 1009.8
20260505194548 24 215 12.9 35.4 0.00 0.00 0.00 41 1009.7
20260505193140 25 190 16.1 32.2 0.00 0.00 0.00 40 1009.4
20260505191639 25 250 8.0 24.1 0.00 0.00 0.00 33 1009.3
20260505190040 25 243 11.3 35.4 0.00 0.00 0.00 32 1009.3
20260505184533 25 219 14.5 35.4 0.00 0.00 0.00 34 1009.3
20260505183031 25 252 8.0 20.9 0.00 0.00 0.00 35 1009.3
20260505181532 24 244 14.5 40.2 0.00 0.00 0.00 36 1009.5
20260505180036 24 240 17.7 35.4 0.00 0.00 0.00 35 1009.4
20260505174525 23 241 11.3 32.2 0.00 0.00 0.00 40 1009.6
20260505173023 23 233 17.7 35.4 0.00 0.00 0.00 40 1009.7
20260505171521 23 213 12.9 35.4 0.00 0.00 0.00 40 1009.7
20260505170019 23 182 9.7 40.2 0.00 0.03 0.00 42 1009.8
20260505164517 22 307 11.3 29.0 0.00 0.03 0.00 44 1009.8
20260505163014 22 217 4.8 37.0 0.00 0.03 0.00 46 1009.7
20260505161510 21 190 12.9 30.6 0.00 0.03 0.00 48 1009.7
20260505153002 20 232 9.7 22.5 0.00 0.41 0.00 51 1010.0
20260505151603 19 211 12.9 32.2 0.00 0.41 0.00 53 1009.9
20260505124530 13 259 6.4 20.9 0.00 0.89 0.00 63 1010.6
20260505123026 13 203 9.7 22.5 0.00 0.89 0.00 65 1010.4
20260505121524 13 254 8.0 19.3 0.00 0.89 0.00 66 1010.3
20260505120034 12 159 3.2 17.7 0.00 0.89 0.00 69 1009.9
20260505114516 12 260 4.8 17.7 0.00 0.89 0.00 72 1010.0
20260505113014 11 211 6.4 16.1 0.00 0.89 0.00 75 1009.9
20260505111522 10 238 9.7 16.1 0.00 0.89 0.00 77 1010.0